Terminal Aerodrome Forecast
Issued by NWS

Home | Current Version | Previous Version | Text Only | Print | Product List | Glossary On
Versions: 1 2 3 4 5 6 7 8 9 10 11 12 13 14 15 16 17 18 19 20
000
FTUS46 KLOX 022326
TAFSBA
TAF
KSBA 022326Z 0300/0324 25009KT P6SM SCT250
     FM030100 24007KT P6SM SKC WS015/34030KT
     FM030300 VRB03KT P6SM SKC WS015/34030KT
     FM031100 VRB03KT P6SM SKC
     FM031600 15008KT P6SM SKC
     FM032100 25009KT P6SM SKC
     FM032300 25009KT P6SM SKC WS010/34025KT=

USA.gov is the U.S. government's official web portal to all federal, state and local government web resources and services.